• In Deutschland
  • Länderverzeichnis
  • Für 7 Tage
  • Wassertemperatur
  • Satellitenkarten
  • Wetterkarte
  • Widgets
  • user-avatar
    Anmelden

    Stündliche Wetter Bad Windsheim

    Heute, 15 August, Mittwoch

    Zeit Temperatur Niederschläge Wind Luftdruck Luftfeuchtigkeit
    00:00 +16°C° 0 mm 1 m/S 733 mmHg 89%
    01:00 +16°C° 0 mm 1 m/S 733 mmHg 91%
    02:00 +16°C° 0 mm 1 m/S 733 mmHg 92%
    03:00 +15°C° 0 mm 1 m/S 733 mmHg 93%
    04:00 +15°C° 0 mm 1 m/S 734 mmHg 94%
    05:00 +16°C° 0 mm 1 m/S 734 mmHg 91%
    06:00 +16°C° 0 mm 1 m/S 734 mmHg 89%
    07:00 +18°C° 0 mm 1 m/S 734 mmHg 84%
    08:00 +19°C° 0,1 mm 2 m/S 734 mmHg 78%
    09:00 +20°C° 0,1 mm 2 m/S 734 mmHg 72%
    10:00 +23°C° 0,1 mm 2 m/S 735 mmHg 66%
    11:00 +24°C° 0,1 mm 3 m/S 735 mmHg 61%
    12:00 +25°C° 0,1 mm 3 m/S 734 mmHg 56%
    13:00 +26°C° 0,1 mm 3 m/S 734 mmHg 51%
    14:00 +26°C° 0 mm 3 m/S 734 mmHg 51%
    15:00 +25°C° 0 mm 3 m/S 734 mmHg 51%
    16:00 +25°C° 0 mm 2 m/S 734 mmHg 51%
    17:00 +24°C° 0 mm 2 m/S 734 mmHg 57%
    18:00 +23°C° 0 mm 2 m/S 734 mmHg 62%
    19:00 +22°C° 0 mm 1 m/S 734 mmHg 67%
    20:00 +21°C° 0 mm 1 m/S 734 mmHg 70%
    21:00 +20°C° 0 mm 1 m/S 734 mmHg 74%
    22:00 +18°C° 0 mm 1 m/S 734 mmHg 78%
    23:00 +18°C° 0 mm 1 m/S 734 mmHg 79%

    Morgen, 16 August, Donnerstag

    Zeit Temperatur Niederschläge Wind Luftdruck Luftfeuchtigkeit
    00:00 +16°C° 0 mm 1 m/S 734 mmHg 81%
    01:00 +16°C° 0 mm 1 m/S 734 mmHg 83%
    02:00 +16°C° 0 mm 1 m/S 734 mmHg 84%
    03:00 +15°C° 0 mm 1 m/S 733 mmHg 86%
    04:00 +15°C° 0 mm 1 m/S 733 mmHg 87%
    05:00 +16°C° 0 mm 1 m/S 733 mmHg 84%
    06:00 +18°C° 0 mm 1 m/S 733 mmHg 81%
    07:00 +19°C° 0 mm 1 m/S 733 mmHg 77%
    08:00 +21°C° 0 mm 1 m/S 733 mmHg 70%
    09:00 +23°C° 0 mm 1 m/S 733 mmHg 63%
    10:00 +25°C° 0 mm 1 m/S 733 mmHg 56%
    11:00 +26°C° 0 mm 1 m/S 733 mmHg 52%
    12:00 +27°C° 0 mm 1 m/S 732 mmHg 48%
    13:00 +29°C° 0 mm 2 m/S 732 mmHg 45%
    14:00 +29°C° 0 mm 1 m/S 732 mmHg 44%
    15:00 +29°C° 0 mm 1 m/S 731 mmHg 43%
    16:00 +29°C° 0 mm 1 m/S 731 mmHg 42%
    17:00 +28°C° 0 mm 1 m/S 731 mmHg 48%
    18:00 +26°C° 0 mm 1 m/S 730 mmHg 54%
    19:00 +25°C° 0 mm 1 m/S 730 mmHg 60%
    20:00 +24°C° 0 mm 1 m/S 730 mmHg 64%
    21:00 +22°C° 0 mm 1 m/S 730 mmHg 68%
    22:00 +21°C° 0 mm 1 m/S 730 mmHg 72%
    23:00 +21°C° 0 mm 1 m/S 730 mmHg 74%

    übermorgen, 17 August, Freitag

    Zeit Temperatur Niederschläge Wind Luftdruck Luftfeuchtigkeit
    00:00 +20°C° 0 mm 1 m/S 730 mmHg 77%
    01:00 +20°C° 0 mm 1 m/S 730 mmHg 79%
    02:00 +19°C° 0 mm 1 m/S 730 mmHg 81%
    03:00 +19°C° 0 mm 1 m/S 730 mmHg 83%
    04:00 +18°C° 0 mm 1 m/S 730 mmHg 85%
    05:00 +19°C° 0 mm 1 m/S 730 mmHg 82%
    06:00 +20°C° 0 mm 1 m/S 730 mmHg 80%
    07:00 +21°C° 0 mm 1 m/S 730 mmHg 77%
    08:00 +23°C° 0 mm 1 m/S 731 mmHg 70%
    09:00 +25°C° 0 mm 1 m/S 731 mmHg 62%
    10:00 +27°C° 0 mm 1 m/S 731 mmHg 54%
    11:00 +28°C° 0 mm 1 m/S 731 mmHg 50%
    12:00 +29°C° 0 mm 1 m/S 731 mmHg 45%
    13:00 +31°C° 0 mm 1 m/S 731 mmHg 41%
    14:00 +30°C° 0 mm 1 m/S 731 mmHg 41%
    15:00 +30°C° 0 mm 1 m/S 730 mmHg 41%
    16:00 +28°C° 0 mm 0 m/S 730 mmHg 41%
    17:00 +29°C° 0 mm 1 m/S 731 mmHg 46%
    18:00 +27°C° 0 mm 1 m/S 731 mmHg 51%
    19:00 +26°C° 0 mm 1 m/S 731 mmHg 57%
    20:00 +24°C° 0,8 mm 1 m/S 731 mmHg 64%
    21:00 +23°C° 0,8 mm 2 m/S 732 mmHg 72%
    22:00 +20°C° 0,8 mm 2 m/S 732 mmHg 79%
    23:00 +20°C° 0,7 mm 2 m/S 732 mmHg 83%

    18 August, Samstag

    Zeit Temperatur Niederschläge Wind Luftdruck Luftfeuchtigkeit
    00:00 +19°C° 0,7 mm 2 m/S 732 mmHg 87%
    01:00 +18°C° 0,7 mm 2 m/S 732 mmHg 91%
    02:00 +18°C° 0,1 mm 2 m/S 732 mmHg 93%
    03:00 +18°C° 0,1 mm 2 m/S 733 mmHg 94%
    04:00 +17°C° 0,1 mm 2 m/S 733 mmHg 96%
    05:00 +18°C° 0 mm 2 m/S 733 mmHg 95%
    06:00 +18°C° 0 mm 2 m/S 734 mmHg 94%
    07:00 +18°C° 0 mm 2 m/S 734 mmHg 93%
    08:00 +19°C° 0 mm 2 m/S 734 mmHg 90%
    09:00 +19°C° 0 mm 2 m/S 735 mmHg 87%
    10:00 +20°C° 0 mm 2 m/S 735 mmHg 85%
    11:00 +21°C° 0 mm 2 m/S 735 mmHg 80%
    12:00 +21°C° 0 mm 2 m/S 735 mmHg 75%
    13:00 +23°C° 0 mm 2 m/S 735 mmHg 70%
    14:00 +24°C° 0 mm 2 m/S 735 mmHg 66%
    15:00 +25°C° 0 mm 2 m/S 735 mmHg 63%
    16:00 +25°C° 0 mm 2 m/S 734 mmHg 59%
    17:00 +24°C° 0 mm 2 m/S 735 mmHg 62%
    18:00 +23°C° 0 mm 1 m/S 735 mmHg 66%
    19:00 +22°C° 0 mm 1 m/S 735 mmHg 70%
    20:00 +21°C° 0 mm 1 m/S 735 mmHg 73%
    21:00 +20°C° 0 mm 1 m/S 735 mmHg 76%
    22:00 +17°C° 0 mm 0 m/S 736 mmHg 80%
    23:00 +16°C° 0 mm 0 m/S 736 mmHg 81%

    19 August, Sonntag

    Zeit Temperatur Niederschläge Wind Luftdruck Luftfeuchtigkeit
    00:00 +16°C° 0 mm 0 m/S 736 mmHg 83%
    01:00 +15°C° 0 mm 0 m/S 736 mmHg 84%
    02:00 +15°C° 0 mm 0 m/S 736 mmHg 85%
    03:00 +15°C° 0 mm 0 m/S 736 mmHg 86%
    04:00 +14°C° 0 mm 0 m/S 736 mmHg 87%
    05:00 +15°C° 0 mm 0 m/S 736 mmHg 84%
    06:00 +16°C° 0 mm 0 m/S 737 mmHg 81%
    07:00 +17°C° 0 mm 0 m/S 737 mmHg 79%
    08:00 +19°C° 0 mm 0 m/S 737 mmHg 70%
    09:00 +23°C° 0 mm 1 m/S 737 mmHg 62%
    10:00 +25°C° 0 mm 1 m/S 737 mmHg 54%
    11:00 +26°C° 0 mm 1 m/S 737 mmHg 49%
    12:00 +27°C° 0 mm 1 m/S 737 mmHg 44%
    13:00 +28°C° 0 mm 1 m/S 737 mmHg 40%
    14:00 +28°C° 0 mm 1 m/S 736 mmHg 39%
    15:00 +28°C° 0 mm 1 m/S 736 mmHg 39%
    16:00 +28°C° 0 mm 1 m/S 736 mmHg 38%
    17:00 +27°C° 0 mm 1 m/S 736 mmHg 44%
    18:00 +25°C° 0 mm 1 m/S 736 mmHg 50%
    19:00 +23°C° 0 mm 1 m/S 735 mmHg 56%
    20:00 +22°C° 0 mm 1 m/S 736 mmHg 58%
    21:00 +21°C° 0 mm 1 m/S 736 mmHg 59%
    22:00 +18°C° 0 mm 0 m/S 736 mmHg 61%
    23:00 +18°C° 0 mm 0 m/S 736 mmHg 63%

    20 August, Montag

    Zeit Temperatur Niederschläge Wind Luftdruck Luftfeuchtigkeit
    00:00 +17°C° 0 mm 0 m/S 736 mmHg 65%
    01:00 +17°C° 0 mm 0 m/S 736 mmHg 67%
    02:00 +16°C° 0 mm 0 m/S 735 mmHg 68%
    03:00 +16°C° 0 mm 0 m/S 735 mmHg 70%
    04:00 +16°C° 0 mm 0 m/S 735 mmHg 71%
    05:00 +16°C° 0 mm 0 m/S 735 mmHg 70%
    06:00 +17°C° 0 mm 0 m/S 736 mmHg 68%
    07:00 +18°C° 0 mm 0 m/S 736 mmHg 67%
    08:00 +20°C° 0 mm 0 m/S 736 mmHg 60%
    09:00 +25°C° 0 mm 1 m/S 736 mmHg 54%
    10:00 +27°C° 0 mm 1 m/S 737 mmHg 47%
    11:00 +28°C° 0 mm 1 m/S 736 mmHg 44%
    12:00 +29°C° 0 mm 1 m/S 736 mmHg 41%
    13:00 +29°C° 0 mm 2 m/S 736 mmHg 38%
    14:00 +30°C° 0 mm 2 m/S 736 mmHg 38%
    15:00 +30°C° 0 mm 2 m/S 735 mmHg 37%
    16:00 +30°C° 0 mm 2 m/S 735 mmHg 37%
    17:00 +28°C° 0 mm 1 m/S 735 mmHg 44%
    18:00 +26°C° 0 mm 1 m/S 735 mmHg 50%
    19:00 +25°C° 0 mm 1 m/S 735 mmHg 56%
    20:00 +24°C° 0 mm 1 m/S 735 mmHg 58%
    21:00 +23°C° 0 mm 1 m/S 736 mmHg 60%
    22:00 +22°C° 0 mm 1 m/S 736 mmHg 63%
    23:00 +21°C° 0 mm 1 m/S 736 mmHg 66%
    Mehr zeigen